Starlink 32765

operational
NORAD ID: 62747 Int'l Des: 2025-014 Owner: SPXS Country: US Constellation: starlink
LEOCIRCULAR

Starlink 32765について

説明を読み込み中...

リアルタイム位置

3D地球を読み込み中...

次回通過

高度履歴

Altitude vs Time

uPlot chart will show altitude changes over time

軌道要素

1 62747U 25014N 25304.00982003 .00031789 00000-0 11588-2 0 9997
2 62747 43.0046 166.8318 0002311 273.7642 86.2946 15.27607282 43424
Epoch: Oct 31, 2025 • Age: 17 hours

現在のステータス

高度 482.2 km
速度 7.63 km/s
衛星直下点 1.97°N, 138.05°W
打ち上げ日 Jan 21, 2025
運用期間 0.7 years
タイプ internet

技術仕様

分類 Payload
質量 730.00 kg
乾燥質量 700.00 kg
総質量 730.00 kg
長さ 0.30 m
直径 4.10 m
スパン 29.00 m
形状 Box + pan
製造者 SPXS
バスタイプ Starlink V2M
フェーズステータス In Orbit
所有者/国 SPXS/US

大規模コンステレーション

Loading constellations...